Change the Weather History Date:

Sunday, March 24, 2013

  Actual Average (KMBS) Record (KMBS)
Temperature  
Mean Temperature 28 °F 37 °F  
Max Temperature 36 °F 46 °F 66 °F (2003)
Min Temperature 20 °F 28 °F 12 °F (2014)
Degree Days  
Heating Degree Days 37    
Month to date heating degree days  
Since 1 July heating degree days  
Cooling Degree Days 0    
Month to date cooling degree days  
Year to date cooling degree days  
Moisture  
Dew Point 22 °F    
Average Humidity 78    
Maximum Humidity 94    
Minimum Humidity 45    
Precipitation  
Precipitation 0.00 in 0.07 in 0.16 in (2004)
Month to date precipitation 1.57  
Year to date precipitation 4.89  
Snow  
Snow 0.00 in - - ()
Month to date snowfall  
Since 1 July snowfall  
Snow Depth -    
Sea Level Pressure  
Sea Level Pressure 29.90 in    
Wind  
Wind Speed 4 mph (NE)    
Max Wind Speed 15 mph    
Max Gust Speed 22 mph    
Visibility 10 miles    
Events      
T = Trace of Precipitation, MM = Missing Value Source: NWS Daily Summary

Daily Weather History Graph

Daily Weather History Graph

Search for Another Location

Airport or City:

Trip Planner

Search our weather history database for the weather conditions in past years. The results will help you decide how hot, cold, wet, or windy it might be!

Date:

Astronomy

Mar. 24, 2013 Rise Set
Actual Time 7:29 AM EDT 7:51 PM EDT
Civil Twilight 7:00 AM EDT 8:19 PM EDT
Nautical Twilight 6:27 AM EDT 8:53 PM EDT
Astronomical Twilight 5:52 AM EDT 9:28 PM EDT
Moon 5:14 PM EDT (3/24) 5:43 AM EDT (3/24)
Length of Visible Light 13h 19m
Length of Day
12h 21m
Waxing Gibbous, 91% of the Moon is Illuminated
Mar 24
Waxing Gibbous
Mar 27
Full
Apr 3
Last Quarter
Apr 10
New
Apr 18
First Quarter

Hourly Weather History & Observations

Time (EDT) Temp. Windchill Dew Point Humidity Pressure Visibility Wind Dir Wind Speed Gust Speed Precip Events Conditions
12:14 AM 25.7 °F - 23.0 °F 89% 30.05 in 10.0 mi Calm Calm - N/A   Overcast
12:35 AM 25.9 °F - 23.4 °F 90% 30.04 in 10.0 mi Calm Calm - N/A   Scattered Clouds
12:54 AM 24.8 °F - 22.8 °F 92% 30.04 in 10.0 mi Calm Calm - N/A   Clear
1:14 AM 24.8 °F 20.5 °F 23.0 °F 93% 30.03 in 10.0 mi ENE 3.5 mph - N/A   Clear
1:35 AM 24.4 °F - 22.5 °F 92% 30.02 in 10.0 mi Calm Calm - N/A   Clear
1:54 AM 24.4 °F - 22.6 °F 93% 30.02 in 10.0 mi Calm Calm - N/A   Clear
2:14 AM 23.4 °F - 21.2 °F 91% 30.02 in 10.0 mi Calm Calm - N/A   Clear
2:35 AM 21.4 °F - 19.4 °F 92% 30.02 in 10.0 mi Calm Calm - N/A   Scattered Clouds
2:54 AM 24.1 °F - 22.3 °F 93% 30.02 in 10.0 mi Calm Calm - N/A   Scattered Clouds
3:15 AM 23.2 °F - 21.4 °F 93% 30.02 in 10.0 mi Calm Calm - N/A   Clear
3:34 AM 22.5 °F 17.8 °F 20.7 °F 93% 30.01 in 10.0 mi North 3.5 mph - N/A   Clear
3:55 AM 21.9 °F - 20.3 °F 93% 30.02 in 10.0 mi Calm Calm - N/A   Clear
4:13 AM 21.0 °F - 19.4 °F 93% 30.03 in 10.0 mi Calm Calm - N/A   Clear
4:34 AM 22.1 °F - 20.5 °F 93% 30.02 in 10.0 mi Calm Calm - N/A   Clear
4:54 AM 22.1 °F - 20.5 °F 93% 30.02 in 10.0 mi Calm Calm - N/A   Clear
5:14 AM 21.2 °F - 19.4 °F 93% 30.01 in 10.0 mi Calm Calm - N/A   Clear
5:34 AM 20.8 °F - 19.2 °F 93% 30.01 in 10.0 mi Calm Calm - N/A   Clear
5:55 AM 20.5 °F - 19.0 °F 94% 30.01 in 10.0 mi Calm Calm - N/A   Clear
6:14 AM 21.0 °F - 19.4 °F 93% 30.01 in 10.0 mi Calm Calm - N/A   Clear
6:34 AM 21.2 °F - 19.8 °F 94% 30.00 in 10.0 mi Calm Calm - N/A   Clear
6:55 AM 20.8 °F - 19.2 °F 93% 30.01 in 10.0 mi Calm Calm - N/A   Clear
7:14 AM 21.0 °F - 19.4 °F 93% 30.01 in 10.0 mi Calm Calm - N/A   Clear
7:34 AM 21.0 °F - 19.2 °F 93% 30.01 in 10.0 mi Calm Calm - N/A   Clear
7:55 AM 21.2 °F - 19.4 °F 93% 30.01 in 10.0 mi Calm Calm - N/A   Clear
8:14 AM 21.9 °F - 20.1 °F 93% 30.01 in 10.0 mi Calm Calm - N/A   Clear
8:35 AM 24.1 °F - 22.3 °F 93% 30.01 in 10.0 mi Calm Calm - N/A   Clear
8:54 AM 24.4 °F - 22.6 °F 93% 30.01 in 10.0 mi Calm Calm - N/A   Scattered Clouds
9:14 AM 27.1 °F 23.2 °F 25.5 °F 94% 30.00 in 10.0 mi ENE 3.5 mph - N/A   Overcast
9:34 AM 29.7 °F 24.7 °F 27.5 °F 92% 29.98 in 10.0 mi ENE 4.6 mph - N/A   Overcast
9:54 AM 29.7 °F 24.7 °F 27.5 °F 92% 29.96 in 10.0 mi NE 4.6 mph - N/A   Overcast
10:15 AM 30.4 °F 25.6 °F 28.2 °F 92% 29.97 in 10.0 mi NE 4.6 mph - N/A   Overcast
10:34 AM 31.1 °F 26.4 °F 28.4 °F 90% 29.97 in 10.0 mi NE 4.6 mph - N/A   Overcast
10:54 AM 31.8 °F 27.3 °F 28.9 °F 89% 29.97 in 10.0 mi NE 4.6 mph - N/A   Overcast
11:15 AM 32.0 °F 28.7 °F 28.9 °F 88% 29.96 in 10.0 mi NE 3.5 mph - N/A   Overcast
11:34 AM 32.4 °F 27.9 °F 29.3 °F 88% 29.95 in 10.0 mi NNE 4.6 mph - N/A   Overcast
11:54 AM 33.1 °F 28.7 °F 29.1 °F 85% 29.94 in 10.0 mi NNE 4.6 mph - N/A   Overcast
12:15 PM 33.8 °F 29.6 °F 28.9 °F 82% 29.93 in 10.0 mi NNE 4.6 mph - N/A   Overcast
12:34 PM 34.9 °F 28.3 °F 26.8 °F 72% 29.92 in 10.0 mi ENE 8.1 mph - N/A   Scattered Clouds
12:54 PM 35.6 °F 29.2 °F 21.2 °F 56% 29.91 in 10.0 mi ENE 8.1 mph - N/A   Scattered Clouds
1:15 PM 35.8 °F 30.1 °F 18.3 °F 49% 29.90 in 10.0 mi ENE 6.9 mph 16.1 mph N/A   Scattered Clouds
1:34 PM 36.5 °F 29.7 °F 17.1 °F 45% 29.89 in 10.0 mi ENE 9.2 mph - N/A   Clear
1:54 PM 36.5 °F 29.2 °F 20.5 °F 52% 29.88 in 10.0 mi NE 10.4 mph 17.3 mph N/A   Clear
2:15 PM 35.2 °F 27.1 °F 20.1 °F 54% 29.87 in 10.0 mi NNE 11.5 mph 18.4 mph N/A   Scattered Clouds
2:34 PM 35.2 °F 26.6 °F 21.2 °F 57% 29.85 in 10.0 mi NE 12.7 mph 18.4 mph N/A   Scattered Clouds
2:54 PM 35.2 °F 27.1 °F 21.9 °F 58% 29.84 in 10.0 mi NE 11.5 mph 18.4 mph N/A   Scattered Clouds
3:14 PM 34.9 °F 25.7 °F 21.9 °F 59% 29.83 in 10.0 mi ENE 13.8 mph 17.3 mph N/A   Scattered Clouds
3:34 PM 34.7 °F 25.5 °F 21.7 °F 59% 29.82 in 10.0 mi NE 13.8 mph 21.9 mph N/A   Mostly Cloudy
3:55 PM 33.8 °F 25.3 °F 22.1 °F 62% 29.82 in 10.0 mi NE 11.5 mph - N/A   Overcast
4:14 PM 34.9 °F 27.1 °F 22.1 °F 60% 29.81 in 10.0 mi NE 10.4 mph - N/A   Overcast
4:34 PM 34.5 °F 25.7 °F 22.1 °F 61% 29.80 in 10.0 mi NE 12.7 mph 18.4 mph N/A   Overcast
4:54 PM 33.8 °F 25.8 °F 21.9 °F 62% 29.80 in 10.0 mi NE 10.4 mph 19.6 mph N/A   Overcast
5:14 PM 33.8 °F 25.3 °F 20.3 °F 58% 29.79 in 10.0 mi NE 11.5 mph 18.4 mph N/A   Overcast
5:35 PM 34.0 °F 26.0 °F 19.8 °F 56% 29.78 in 10.0 mi NE 10.4 mph 19.6 mph N/A   Overcast
5:54 PM 33.1 °F 23.0 °F 20.7 °F 60% 29.77 in 10.0 mi NNE 15.0 mph 21.9 mph N/A   Overcast
6:14 PM 32.9 °F 23.7 °F 21.0 °F 62% 29.77 in 10.0 mi NE 12.7 mph 18.4 mph N/A   Overcast
6:35 PM 32.4 °F 23.5 °F 20.1 °F 61% 29.77 in 10.0 mi NE 11.5 mph 16.1 mph N/A   Overcast
6:54 PM 32.2 °F 22.3 °F 19.4 °F 59% 29.77 in 10.0 mi NE 13.8 mph 17.3 mph N/A   Overcast
7:14 PM 32.0 °F 23.0 °F 20.1 °F 62% 29.77 in 10.0 mi NNE 11.5 mph 19.6 mph N/A   Overcast
7:35 PM 32.0 °F 24.2 °F 20.7 °F 63% 29.77 in 10.0 mi NE 9.2 mph 18.4 mph N/A   Overcast
7:54 PM 32.0 °F 23.0 °F 21.2 °F 64% 29.75 in 10.0 mi NE 11.5 mph 18.4 mph N/A   Overcast
8:14 PM 31.8 °F 22.8 °F 21.9 °F 67% 29.75 in 10.0 mi NE 11.5 mph 18.4 mph N/A   Overcast
8:35 PM 31.5 °F 24.2 °F 22.1 °F 68% 29.74 in 10.0 mi NE 8.1 mph 16.1 mph N/A   Overcast
8:54 PM 30.9 °F 23.5 °F 22.6 °F 71% 29.73 in 10.0 mi NE 8.1 mph - N/A   Mostly Cloudy
9:14 PM 31.1 °F 23.7 °F 23.9 °F 75% 29.73 in 10.0 mi NE 8.1 mph 16.1 mph N/A   Scattered Clouds
9:34 PM 30.9 °F 22.8 °F 23.0 °F 72% 29.73 in 10.0 mi NE 9.2 mph 17.3 mph N/A   Scattered Clouds
9:54 PM 30.7 °F 22.0 °F 22.6 °F 72% 29.74 in 10.0 mi NE 10.4 mph - N/A   Scattered Clouds
10:15 PM 31.1 °F 23.1 °F 22.6 °F 71% 29.73 in 10.0 mi NE 9.2 mph - N/A   Overcast
10:34 PM 31.1 °F 24.5 °F 22.1 °F 69% 29.73 in 10.0 mi NE 6.9 mph - N/A   Overcast
10:54 PM 31.5 °F 24.9 °F 21.9 °F 68% 29.72 in 10.0 mi NE 6.9 mph - N/A   Mostly Cloudy
11:15 PM 31.6 °F 24.4 °F 23.0 °F 70% 29.71 in 10.0 mi NE 8.1 mph - N/A   Scattered Clouds
11:34 PM 31.8 °F 25.4 °F 23.5 °F 71% 29.71 in 10.0 mi NE 6.9 mph - N/A   Scattered Clouds
11:54 PM 32.0 °F 24.8 °F 23.4 °F 70% 29.70 in 10.0 mi NE 8.1 mph - N/A   Clear